Location: Hains Lake
(37.8540°N, 99.8578°W)
Time: 02:11:32
(UTC+00:00)

Transit 2A - Pass Details

Date: 20 April 2021
Orbit: 602 x 957 km, 66.7° (Epoch: 06 May)

Event Time Altitude Azimuth Distance (km) Brightness Sun altitude
Rises 21:32:43 0° 346° (NNW) 2,875 8.9 43.3°
Reaches altitude 10° 21:35:25 10° 2° (N) 1,992 8.1 42.8°
Maximum altitude 21:38:49 21° 52° (NE) 1,441 7.2 42.1°
Drops below altitude 10° 21:42:22 10° 102° (ESE) 2,092 8.0 41.5°
Sets 21:45:16 0° 118° (ESE) 3,064 8.8 40.9°
